Regional Weather Roundup
Issued by NWS

Home | Current Version | Previous Version | Text Only | Print | Product List | Glossary Off
Versions: 1 2 3 4 5 6 7 8 9 10 11 12 13 14 15 16 17 18 19 20 21 22 23 24 25 26 27 28 29 30 31 32 33 34 35 36 37 38 39 40 41 42 43 44 45 46 47 48 49 50

078
ASUS45 KCYS 281010
RWRWY

WYOMING REGIONAL WEATHER ROUNDUP
NATIONAL WEATHER SERVICE CHEYENNE WY
400 AM MDT SAT MAY 28 2016

NOTE:  "FAIR" INDICATES FEW OR NO CLOUDS BELOW 12,000 FEET
WITH NO SIGNIFICANT WEATHER AND/OR OBSTRUCTIONS TO VISIBILITY.

WYZ001-281100-
YELLOWSTONE NATIONAL PARK

CITY           SKY/WX    TMP DP  RH WIND       PRES   REMARKS
LK YELLOWSTONE   N/A     33  31  92 CALM      30.06S
W YELLOWSTONE  NOT AVBL

$$
WYZ002>013-054>058-071-098>099-281100-
NORTHERN WYOMING

CITY           SKY/WX    TMP DP  RH WIND       PRES   REMARKS
JACKSON        FAIR      39  34  81 CALM      30.02S
CODY           FAIR      43  41  93 S3        29.96S
GREYBULL       CLOUDY    51  47  86 CALM      29.93S
WORLAND        FAIR      49  47  93 SW5       29.93S
SHERIDAN       MOCLDY    47  44  90 CALM      29.90S
BUFFALO        FAIR      47  43  86 NW9       29.92F
GILLETTE       CLOUDY    46  44  93 W7        29.91S
HULETT         PTSUNNY   46  43  87 SW7       29.92S
NEWCASTLE      FAIR      43  37  81 N7        29.91S

$$
WYZ014>020-022>026-101>103-281100-
CENTRAL WYOMING

CITY           SKY/WX    TMP DP  RH WIND       PRES   REMARKS
BIG PINEY      CLOUDY    37  34  89 CALM      30.04S
PINEDALE       CLOUDY    34  32  93 NW3       30.05S
DUBOIS         FAIR      37  30  75 W9        30.00S WCI  31
LANDER         FAIR      44  32  62 W6        29.94S
RIVERTON       FAIR      44  40  85 NW9       29.95R
CASPER         FAIR      39  35  86 CALM      29.95F
DOUGLAS          N/A    N/A N/A N/A MISG      29.95R

$$
WYZ021-027>030-104>119-281100-
SOUTHERN WYOMING

CITY           SKY/WX    TMP DP  RH WIND       PRES   REMARKS
EVANSTON       CLOUDY    42  34  73 SW7       30.06S
KEMMERER         N/A     37  34  87 NW3       30.06R
FORT BRIDGER   SUNNY     41  36  81 W9        30.08S
ROCK SPRINGS   FAIR      42  35  76 SW12      30.03S
DIXON          FAIR      38  35  89 CALM      30.08R
RAWLINS        FAIR      44  35  70 SW15      30.02R
SARATOGA       FAIR      39  36  87 SE6       30.05S WCI  35
LARAMIE        FAIR      35  32  88 S6        30.01S WCI  30
CHEYENNE       FAIR      43  34  70 NW5       29.97S
TORRINGTON     FOG       41  40  96 NW5       29.90F VSB 1/4
PINE BLUFFS    FAIR      34  34 100 W6        29.96R WCI  29

$$




USA.gov is the U.S. government's official web portal to all federal, state and local government web resources and services.